Preview of NWS' New Version of Forecast
This preview is not operational and should not be used for support decisions.

Regional Weather Roundup (RWR)

Issued by National Weather Service (NWS)

                            
000
ASUS42 KTBW 171618
RWRFL 
FLORIDA REGIONAL WEATHER ROUNDUP
NATIONAL WEATHER SERVICE TAMPA BAY RUSKIN FL
1200 PM EDT WED APR 17 2019

NOTE: "FAIR" INDICATES FEW OR NO CLOUDS BELOW 12,000 FEET WITH NO
SIGNIFICANT WEATHER AND/OR OBSTRUCTIONS TO VISIBILITY.

FLZ001>010-012>015-112-114-115-171700-
PANHANDLE FLORIDA
  
CITY           SKY/WX    TMP DP  RH WIND       PRES   REMARKS
PENSACOLA      FAIR      72  61  68 SE7       30.12R                  
PENSACOLA NAS  PTSUNNY   72  63  73 E8        30.11R                  
MILTON NAS     PTSUNNY   73  60  63 SE9       30.12R                  
CRESTVIEW        N/A    N/A N/A N/A MISG      30.13S                  
DUKE FIELD     PTSUNNY   76  59  55 S12       30.11S                  
VALPARAISO     FAIR      74  64  70 SE12      30.12R                  
MARY ESTHER    PTSUNNY   73  63  69 SE10      30.11R                  
PANAMA CITY    FAIR      76  65  68 SE13      30.13R                  
TYNDALL AFB    FAIR      76  65  70 SE17      30.12R                  
APALACHICOLA   FAIR      74  63  68 SE10      30.14R                  

STATION/POSITION SKY/WX   TEMP    WIND        PRES    WAVE   SWELL
                          AIR SEA DIR/SP/G            HT/PER HT/PER
                          (F)     (DEG/KT/KT) (MB)    (FT/S) (FT/S)
30.1N   87.6W              69     130/  6/  8 1019.9R   1/ 4   2/ 4
29.2N   88.2W                     130/ 10/ 14 1019.5R   2/ 4   2/ 6
PANAMA CITY BEAC           71 70  140/ 14/ 15 1020.5R
TOWER C          NOT AVBL

$$
FLZ011-016>038-118-127-128-134-139-239-171700-
NORTH FLORIDA
  
CITY           SKY/WX    TMP DP  RH WIND       PRES   REMARKS
MARIANNA       FAIR      77  61  57 S10       30.13S                  
TALLAHASSEE    CLOUDY    78  63  59 SE10      30.15S                  
PERRY          FAIR      78  60  53 SE3       30.16S                  
LIVE OAK       SUNNY     77  59  53 VRB5      30.16S                  
CROSS CITY     FAIR      79  59  50 SE6       30.15S                  
LAKE CITY      FAIR      75  55  50 CALM      30.17S                  
GAINESVILLE    FAIR      80  60  50 SE9       30.18F                  
PALATKA        FAIR     N/A N/A N/A SE9       30.17S                  
MAYPORT NAS    CLOUDY    75  64  68 NE8       30.19R                  
JACKSONVILLE   PTSUNNY   76  58  53 E12       30.17S                  
JAX NAS        PTSUNNY   77  57  50 E7        30.18S                  
JAX CECIL      SUNNY     82  59  44 S7        30.17S                  
FERNANDINA BEA FAIR      75  61  62 E10       30.19S                  
ST AUGUSTINE   FAIR      75  62  64 E9        30.19S                  
PALM COAST     SUNNY     79  63  57 E14       30.17S                  

STATION/POSITION SKY/WX   TEMP    WIND        PRES    WAVE   SWELL
                          AIR SEA DIR/SP/G            HT/PER HT/PER
                          (F)     (DEG/KT/KT) (MB)    (FT/S) (FT/S)
SHELL POINT      NOT AVBL
KEATON BEACH               72     180/ 12/ 13 1021.4R
CEDAR KEY                  71     140/  6/  6 1021.0F
FERNANDINA                 76 69   80/  6/  9 1023.0S
30.7N   81.3W                 68                N/A     2/ 9
MAYPORT                    70 69   60/  8/  9 1022.3S
31.4N   80.9W              69 68  110/  4/  6 1022.8R   2/ 8   2/ 8
ST AUGUSTINE               72 69   70/  7/  8 1022.2R

$$
FLZ040-043>046-052-053-057-058-063-144-171700-
INTERIOR CENTRAL FLORIDA
  
CITY           SKY/WX    TMP DP  RH WIND       PRES   REMARKS
OCALA          FAIR      78  59  51 S9        30.16F                  
LEESBURG       FAIR      80  59  48 E13       30.16S                  
SANFORD        FAIR      79  62  56 E9        30.15S                  
ORLANDO EXEC   PTSUNNY   79  59  50 E9        30.15S                  
ORLANDO INTL   PTSUNNY   80  60  50 E8        30.15S                  
KISSIMMEE      PTSUNNY   78  60  53 SE12      30.15                   
WINTER HAVEN   FAIR      80  59  48 E10       30.15F                  
LAKELAND       MOSUNNY   79  59  50 SE8       30.14F                  
BARTOW         MOSUNNY   81  59  47 E10       30.13F                  
SEBRING        PTSUNNY   78  61  54 E9G16     30.14S                  
OKEECHOBEE     PTSUNNY   77  61  57 E7        30.13S                  

$$
FLZ041-047-054-059-064-141-147-171700-
EAST CENTRAL FLORIDA
  
CITY           SKY/WX    TMP DP  RH WIND       PRES   REMARKS
ORMOND BEACH   MOSUNNY   77  63  61 NE12      30.17S                  
DAYTONA BEACH  FAIR      78  64  61 E9        30.16F                  
DELAND         PTSUNNY   77  61  57 E7        30.15F                  
NEW SMYRNA BEA MOSUNNY   79  63  57 E8        30.18R                  
JFK SPACE CTR  PTSUNNY   80  63  56 E8        30.15R                  
TITUSVILLE     PTSUNNY   81  61  50 SE8       30.15S                  
CAPE CANAVERAL PTSUNNY   78  57  47 SE9       30.15R                  
PATRICK AFB    FAIR      79  61  53 E12       30.15R                  
MELBOURNE      FAIR      79  60  52 E13       30.15S                  
VERO BEACH     FAIR      81  60  48 E14       30.14F                  
FT PIERCE      FAIR      80  57  45 E13G21    30.14S                  
STUART         MOSUNNY   81  57  44 E10       30.15                   

STATION/POSITION SKY/WX   TEMP    WIND        PRES    WAVE   SWELL
                          AIR SEA DIR/SP/G            HT/PER HT/PER
                          (F)     (DEG/KT/KT) (MB)    (FT/S) (FT/S)
28.5N   80.2W              76     110/ 10/ 14 1021.8
28.9N   78.5W              74 77   80/ 12/ 16 1022.2S   4/ 8   3/ 8
TRIDENT PIER               78 77   90/  7/ 10 1022.4R
28.4N   80.5W                 76                N/A     2/ 7
27.5N   80.2W                 76                N/A     3/ 8

$$
FLZ050-056-061-142-242-148-248-149-249-151-251-155-255-
160-260-171700-
WEST CENTRAL FLORIDA
  
CITY           SKY/WX    TMP DP  RH WIND       PRES   REMARKS
CRYSTAL RIVER  FAIR      81  57  44 E6        30.14S                  
INVERNESS      FAIR      79  61  53 E5        30.15F                  
BROOKSVILLE    FAIR      80  59  48 VRB7      30.14F                  
CLEARWATER AIR FAIR      77  59  53 E10       30.13S                  
ST PETE CLEARW FAIR      77  59  53 E7G17     30.13F                  
TAMPA INTL     PTSUNNY   79  59  50 SE6       30.13F                  
TAMPA EXEC     FAIR      81  61  50 E8        30.14F                  
PLANT CITY     FAIR      81  55  41 SE9       30.16S                  
MACDILL AFB    FAIR      79  60  51 SE7       30.12F                  
PETER O KNIGHT CLOUDY    81  61  50 SE5       30.14S                  
ST PETERSBURG  FAIR      77  61  57 SE6       30.11F                  
SARASOTA       FAIR      81  59  47 SE12      30.10F                  
VENICE         FAIR      82  61  47 VRB6G15   30.12F                  

STATION/POSITION SKY/WX   TEMP    WIND        PRES    WAVE   SWELL
                          AIR SEA DIR/SP/G            HT/PER HT/PER
                          (F)     (DEG/KT/KT) (MB)    (FT/S) (FT/S)
27.3N   84.2W                 75                N/A     4/ 5
CLEARWATER BEACH           77 76  140/  4/  7 1020.2F
MIDDLE TAMPA BAY           77     130/  8/  9 1020.3F
VENICE                     78 77  100/  7/  9 1019.5F

$$
FLZ066-069-070-075>078-162-262-165-265-171700-
SOUTHWEST FLORIDA AND KEYS
  
CITY           SKY/WX    TMP DP  RH WIND       PRES   REMARKS
PUNTA GORDA    FAIR      81  57  43 E10       30.13F                  
FT MYERS       FAIR      80  58  46 VRB6      30.10F                  
SOUTHWEST INTL FAIR      81  58  45 E10       30.11F                  
NAPLES         FAIR      81  61  50 CALM      30.10F                  
MARCO ISLAND   FAIR      81  61  50 E9        30.12F                  
IMMOKALEE      FAIR      82  61  47 E12       30.10S                  
MARATHON         N/A    N/A N/A N/A MISG      30.09S                  
KEY WEST NAS   FAIR      83  63  50 E13       30.09S                  
KEY WEST INTL  FAIR      82  63  52 E13       30.10S                  

STATION/POSITION SKY/WX   TEMP    WIND        PRES    WAVE   SWELL
                          AIR SEA DIR/SP/G            HT/PER HT/PER
                          (F)     (DEG/KT/KT) (MB)    (FT/S) (FT/S)
NAPLES                     79 79   70/  4/ 10 1019.5F
DRY TORTUGAS               77      90/ 18/ 20 1018.8F
SAND KEY                   76                 1019.1R
SOMBRERO KEY               76                 1018.5R

$$
FLZ067-068-071>074-168-172>174-171700-
SOUTHEAST FLORIDA 
  
CITY           SKY/WX    TMP DP  RH WIND       PRES   REMARKS
W PALM BEACH   PTSUNNY   79  58  48 NE12      30.13S                  
BOCA RATON     MOSUNNY   84  61  45 E10G17    30.12S                  
FT LAUDER-EXEC FAIR      80  56  43 E7        30.12S                  
FT LAUDERDALE  PTSUNNY   81  60  48 E9        30.11S                  
POMPANO BEACH  FAIR      80  59  48 E9        30.12S                  
PEMBROKE PINES FAIR      80  59  48 NE10G17   30.13S                  
OPA LOCKA      FAIR      81  60  48 NE10      30.12S                  
MIAMI          PTSUNNY   80  62  54 NE12      30.11F                  
WEST KENDALL   FAIR      82  62  50 E10       30.10F                  
HOMESTEAD      PTSUNNY   81  64  55 NE12G18   30.10S                  

STATION/POSITION SKY/WX   TEMP    WIND        PRES    WAVE   SWELL
                          AIR SEA DIR/SP/G            HT/PER HT/PER
                          (F)     (DEG/KT/KT) (MB)    (FT/S) (FT/S)
PORT EVERGLADES            77      60/  9/ 13 1020.0
VIRGINIA KEY               76 81   50/  9/ 12 1019.1F
LAKE WORTH                 75 78   70/ 10/ 13 1021.3F
SETTLEMENT POINT           75      80/ 10/ 11 1020.7R

$$